Location: Newark
(52.3735°N, 16.9806°E)
Time: 04:04:28
(UTC+00:00)

LilacSat-2 - Pass Details

Date: 29 November 2021
Orbit: 511 x 532 km, 97.5° (Epoch: 16 January)

Event Time Altitude Azimuth Distance (km) Brightness Sun altitude
Rises 16:56:11 0° 210° (SSW) 2,624 ? -19.3°
Reaches altitude 10° 16:59:01 10° 234° (SW) 1,748 ? -19.7°
Maximum altitude 17:01:16 15° 271° (W) 1,459 ? -20.0°
Drops below altitude 10° 17:03:32 10° 308° (NW) 1,764 ? -20.4°
Sets 17:06:25 0° 332° (NNW) 2,665 ? -20.8°
